Simultaneous Nadir Overpasses (SNOs) Predictions

Prediction of SNOs between LANDSAT-8 and METOP-B Satellite Orbit:

Table of predicted SNOs for the next 14.0 days since TLE Epoch: 9/26/2025
Index Date (LANDSAT-8) Time (LANDSAT-8) Lat,Lon (LANDSAT-8) SZA (LANDSAT-8 ) Date (METOP-B) Time (METOP-B) Lat,Lon (METOP-B) SZA (METOP-B ) Distance(km) Time Diff (sec)
1 09/28/2025 02:28:36 -81.38, 7.38 93.85 09/28/2025 02:27:37 -81.38, 7.23 93.90 2.53 59
2 09/28/2025 03:18:03 81.37, 174.75 86.13 09/28/2025 03:18:17 81.38, 174.65 86.13 1.79 14
3 09/30/2025 22:02:50 -81.38, 73.80 92.74 09/30/2025 22:02:03 -81.38, 73.88 92.76 1.51 47
4 09/30/2025 22:52:17 81.37,-118.86 87.23 09/30/2025 22:52:43 81.38,-118.74 87.26 2.20 26
5 10/03/2025 17:37:04 -81.37, 139.91 91.68 10/03/2025 17:36:30 -81.38, 140.03 91.68 2.33 34
6 10/03/2025 18:26:30 81.37, -52.39 88.34 10/03/2025 18:27:09 81.38, -52.22 88.39 2.96 39
7 10/06/2025 13:11:15 -81.37,-153.51 90.57 10/06/2025 13:10:55 -81.38,-153.51 90.57 0.45 20
8 10/06/2025 14:00:41 81.37, 14.16 89.46 10/06/2025 14:01:34 81.38, 14.22 89.49 0.96 53
9 10/09/2025 08:45:26 -81.38, -86.85 89.45 10/09/2025 08:45:20 -81.38, -86.75 89.44 1.89 6



Historial Predications of SNOs between LANDSAT-8 and METOP-B
